Weather History for KUBE - April, 2014

Change the Weather History Date:

Sunday, April 6, 2014

  Actual Average (KRPD) Record (KRPD)
Temperature  
Mean Temperature 39 °F -  
Max Temperature 46 °F 47 °F 62 °F (2006)
Min Temperature 32 °F 28 °F 14 °F (2007)
Degree Days  
Heating Degree Days 26    
Moisture  
Dew Point 31 °F    
Average Humidity 74    
Maximum Humidity 100    
Minimum Humidity 61    
Precipitation  
Precipitation 0.00 in - - ()
Sea Level Pressure  
Sea Level Pressure 29.87 in    
Wind  
Wind Speed 7 mph (South)    
Max Wind Speed 15 mph    
Max Gust Speed -    
Visibility 10 miles    
Events      
Averages and records for this station are not official NWS values.
T = Trace of Precipitation, MM = Missing Value Source: NWS Daily Summary

Daily Weather History Graph

Daily Weather History Graph

Search for Another Location

Airport or City:

Trip Planner

Search our weather history database for the weather conditions in past years. The results will help you decide how hot, cold, wet, or windy it might be!

Date:

Astronomy

Apr. 06, 2014 Rise Set
Actual Time 6:38 AM CDT 7:42 PM CDT
Civil Twilight 6:08 AM CDT 8:12 PM CDT
Nautical Twilight 5:32 AM CDT 8:49 PM CDT
Astronomical Twilight 4:54 AM CDT 9:27 PM CDT
Moon 11:30 AM CDT (4/6) 1:48 AM CDT (4/6)
Length of Visible Light 14h 04m
Length of Day
13h 03m
Waxing Crescent, 44% of the Moon is Illuminated
Apr 6
Waxing Crescent
Apr 7
First Quarter
Apr 15
Full
Apr 22
Last Quarter
Apr 29
New

Hourly Weather History & Observations

Time (CDT) Temp. Windchill Dew Point Humidity Pressure Visibility Wind Dir Wind Speed Gust Speed Precip Events Conditions
12:15 AM 33.8 °F 29.6 °F 30.2 °F 87% 29.97 in 10.0 mi SSE 4.6 mph - N/A   Mostly Cloudy
12:35 AM 33.8 °F 28.6 °F 30.2 °F 87% 29.96 in 10.0 mi South 5.8 mph - N/A   Scattered Clouds
12:55 AM 33.8 °F 28.6 °F 30.2 °F 87% 29.96 in 10.0 mi South 5.8 mph - N/A   Clear
1:15 AM 32.0 °F 26.4 °F 28.4 °F 87% 29.96 in 10.0 mi South 5.8 mph - N/A   Clear
1:35 AM 32.0 °F 24.2 °F 28.4 °F 87% 29.95 in 10.0 mi South 9.2 mph - N/A   Clear
1:55 AM 33.8 °F 27.7 °F 30.2 °F 87% 29.95 in 10.0 mi South 6.9 mph - N/A   Mostly Cloudy
2:15 AM 33.8 °F 28.6 °F 30.2 °F 87% 29.95 in 10.0 mi South 5.8 mph - N/A   Overcast
2:35 AM 35.6 °F 29.2 °F 30.2 °F 81% 29.95 in 10.0 mi South 8.1 mph - N/A   Overcast
2:55 AM 35.6 °F 29.9 °F 30.2 °F 81% 29.94 in 10.0 mi South 6.9 mph - N/A   Overcast
3:15 AM 35.6 °F 29.9 °F 30.2 °F 81% 29.94 in 10.0 mi South 6.9 mph - N/A   Overcast
3:35 AM 35.6 °F 32.8 °F 30.2 °F 81% 29.94 in 10.0 mi SSW 3.5 mph - N/A   Overcast
3:55 AM 35.6 °F 29.2 °F 30.2 °F 81% 29.93 in 10.0 mi SSW 8.1 mph - N/A   Overcast
4:15 AM 35.6 °F 29.2 °F 30.2 °F 81% 29.93 in 10.0 mi South 8.1 mph - N/A   Overcast
4:35 AM 35.6 °F 28.6 °F 30.2 °F 81% 29.92 in 10.0 mi South 9.2 mph - N/A   Overcast
4:55 AM 35.6 °F 29.2 °F 30.2 °F 81% 29.91 in 10.0 mi South 8.1 mph - N/A   Overcast
5:15 AM 35.6 °F 30.7 °F 30.2 °F 81% 29.91 in 10.0 mi SSE 5.8 mph - N/A   Overcast
5:35 AM 35.6 °F 29.9 °F 30.2 °F 81% 29.90 in 10.0 mi SSE 6.9 mph - N/A   Overcast
5:55 AM 35.6 °F 29.2 °F 28.4 °F 75% 29.89 in 10.0 mi SE 8.1 mph - N/A   Overcast
6:15 AM 37.4 °F 30.8 °F 28.4 °F 70% 29.89 in 10.0 mi SSE 9.2 mph - N/A   Overcast
6:35 AM 35.6 °F 29.2 °F 28.4 °F 75% 29.89 in 10.0 mi SE 8.1 mph - N/A   Scattered Clouds
6:55 AM 35.6 °F 29.9 °F 28.4 °F 75% 29.89 in 10.0 mi SE 6.9 mph - N/A   Clear
7:15 AM 35.6 °F 30.7 °F 28.4 °F 75% 29.89 in 10.0 mi SE 5.8 mph - N/A   Clear
7:35 AM 35.6 °F 30.7 °F 28.4 °F 75% 29.89 in 10.0 mi SE 5.8 mph - N/A   Scattered Clouds
7:55 AM 35.6 °F 30.7 °F 28.4 °F 75% 29.89 in 10.0 mi SE 5.8 mph - N/A   Mostly Cloudy
8:15 AM 35.6 °F 30.7 °F 28.4 °F 75% 29.89 in 10.0 mi SE 5.8 mph - N/A   Scattered Clouds
8:35 AM 35.6 °F 31.7 °F 28.4 °F 75% 29.89 in 10.0 mi ESE 4.6 mph - N/A   Scattered Clouds
8:55 AM 37.4 °F 33.8 °F 28.4 °F 70% 29.88 in 10.0 mi SE 4.6 mph - N/A   Scattered Clouds
9:15 AM 37.4 °F 31.4 °F 30.2 °F 75% 29.88 in 10.0 mi South 8.1 mph - N/A   Scattered Clouds
9:35 AM 39.2 °F 33.0 °F 30.2 °F 70% 29.87 in 10.0 mi South 9.2 mph - N/A   Scattered Clouds
9:55 AM 39.2 °F 33.0 °F 30.2 °F 70% 29.86 in 10.0 mi South 9.2 mph - N/A   Clear
10:15 AM 41.0 °F 33.9 °F 30.2 °F 65% 29.86 in 10.0 mi SSW 12.7 mph - N/A   Clear
10:35 AM 41.0 °F 34.7 °F 30.2 °F 65% 29.86 in 10.0 mi SSW 10.4 mph - N/A   Clear
10:55 AM 41.0 °F 34.3 °F 30.2 °F 65% 29.85 in 10.0 mi SSW 11.5 mph - N/A   Clear
11:15 AM 42.8 °F 35.8 °F 30.2 °F 61% 29.85 in 10.0 mi SW 13.8 mph - N/A   Clear
11:35 AM 42.8 °F 36.2 °F 32.0 °F 66% 29.85 in 10.0 mi SW 12.7 mph - N/A   Clear
11:55 AM 42.8 °F 36.2 °F 32.0 °F 66% 29.85 in 10.0 mi SSW 12.7 mph - N/A   Clear
12:15 PM 42.8 °F 35.4 °F 32.0 °F 66% 29.84 in 10.0 mi SSW 15.0 mph - N/A   Clear
12:35 PM 42.8 °F 36.6 °F 32.0 °F 66% 29.84 in 10.0 mi SSW 11.5 mph - N/A   Clear
12:55 PM 44.6 °F 38.4 °F 32.0 °F 61% 29.84 in 10.0 mi SW 12.7 mph - N/A   Clear
1:15 PM 44.6 °F 38.8 °F 32.0 °F 61% 29.84 in 10.0 mi SW 11.5 mph - N/A   Clear
1:35 PM 44.6 °F 39.2 °F 32.0 °F 61% 29.83 in 10.0 mi SSW 10.4 mph - N/A   Clear
1:55 PM 44.6 °F 39.2 °F 32.0 °F 61% 29.83 in 10.0 mi SW 10.4 mph - N/A   Clear
2:15 PM 44.6 °F 40.2 °F 32.0 °F 61% 29.83 in 10.0 mi SSW 8.1 mph - N/A   Clear
2:35 PM 44.6 °F 38.8 °F 32.0 °F 61% 29.83 in 10.0 mi SSW 11.5 mph - N/A   Clear
2:55 PM 44.6 °F 40.7 °F 32.0 °F 61% 29.83 in 10.0 mi SSW 6.9 mph - N/A   Clear
3:15 PM 44.6 °F 39.7 °F 32.0 °F 61% 29.82 in 10.0 mi SSW 9.2 mph - N/A   Clear
3:35 PM 44.6 °F 39.7 °F 33.8 °F 66% 29.82 in 10.0 mi SSW 9.2 mph - N/A   Clear
3:55 PM 44.6 °F 40.2 °F 32.0 °F 61% 29.82 in 10.0 mi SSW 8.1 mph - N/A   Clear
4:15 PM 44.6 °F 40.7 °F 33.8 °F 66% 29.82 in 10.0 mi SSW 6.9 mph - N/A   Clear
4:35 PM 44.6 °F 41.4 °F 33.8 °F 66% 29.82 in 10.0 mi SSW 5.8 mph - N/A   Clear
4:55 PM 44.6 °F 40.7 °F 33.8 °F 66% 29.81 in 10.0 mi SSW 6.9 mph - N/A   Clear
5:15 PM 44.6 °F 40.7 °F 33.8 °F 66% 29.82 in 10.0 mi SSW 6.9 mph - N/A   Clear
5:35 PM 44.6 °F 41.4 °F 33.8 °F 66% 29.81 in 10.0 mi SSW 5.8 mph - N/A   Clear
5:55 PM 44.6 °F 42.2 °F 33.8 °F 66% 29.82 in 10.0 mi SSW 4.6 mph - N/A   Clear
6:15 PM 46.4 °F 45.2 °F 33.8 °F 62% 29.82 in 10.0 mi SSW 3.5 mph - N/A   Clear
6:35 PM 46.4 °F 45.2 °F 33.8 °F 62% 29.82 in 10.0 mi South 3.5 mph - N/A   Clear
6:55 PM 46.4 °F - 33.8 °F 62% 29.82 in 10.0 mi Calm Calm - N/A   Clear
7:15 PM 44.6 °F - 33.8 °F 66% 29.81 in 10.0 mi Calm Calm - N/A   Clear
7:35 PM 46.4 °F 45.2 °F 35.6 °F 66% 29.82 in 10.0 mi South 3.5 mph - N/A   Clear
7:55 PM 44.6 °F - 35.6 °F 71% 29.82 in 10.0 mi Calm Calm - N/A   Clear
8:15 PM 42.8 °F 41.1 °F 35.6 °F 76% 29.83 in 10.0 mi South 3.5 mph - N/A   Clear
8:35 PM 41.0 °F - 33.8 °F 76% 29.83 in 10.0 mi Calm Calm - N/A   Clear
8:55 PM 41.0 °F - 33.8 °F 76% 29.84 in 10.0 mi Calm Calm - N/A   Clear
9:15 PM 37.4 °F 34.9 °F 32.0 °F 81% 29.84 in 10.0 mi NW 3.5 mph - N/A   Clear
9:35 PM 37.4 °F - 32.0 °F 81% 29.84 in 7.0 mi Calm Calm - N/A   Clear
9:55 PM 35.6 °F - 32.0 °F 87% 29.85 in 10.0 mi Calm Calm - N/A   Clear
10:15 PM 35.6 °F - 32.0 °F 87% 29.84 in 7.0 mi Calm Calm - N/A   Clear
10:35 PM 33.8 °F - 32.0 °F 93% 29.84 in 7.0 mi Calm Calm - N/A   Clear
10:55 PM 33.8 °F - 32.0 °F 93% 29.85 in 7.0 mi Calm Calm - N/A   Scattered Clouds
11:15 PM 32.0 °F - 32.0 °F 100% 29.84 in 7.0 mi Calm Calm - N/A   Scattered Clouds
11:35 PM 33.8 °F 30.8 °F 32.0 °F 93% 29.84 in 7.0 mi South 3.5 mph - N/A   Scattered Clouds
11:55 PM 32.0 °F - 30.2 °F 93% 29.84 in 5.0 mi Calm Calm - N/A   Clear